Regional Weather Roundup
Issued by NWS Bismarck, ND

Home | Current Version | Previous Version | Text Only | Print | Product List | Glossary On
Versions: 1 2 3 4 5 6 7 8 9 10 11 12 13 14 15 16 17 18 19 20 21 22 23 24 25 26 27 28 29 30 31 32 33 34 35 36 37 38 39 40 41 42 43 44 45 46 47 48 49 50
000
ASUS43 KBIS 240610
RWRBIS

NWR BROADCAST TEXT
NATIONAL WEATHER SERVICE BISMARCK ND
100 AM CDT TUE OCT 24 2017

NOTE: "FAIR" INDICATES FEW OR NO CLOUDS BELOW 12,000 FEET WITH NO
SIGNIFICANT WEATHER AND/OR OBSTRUCTIONS TO VISIBILITY.


CITY           SKY/WX    TMP DP  RH WIND       PRES   REMARKS
WILLISTON      CLEAR     38  29  70 W10       30.40F
MINOT          CLEAR     39  29  67 W15       30.31F
MINOT AFB      CLEAR     34  28  78 NW12      30.29F
BISMARCK       CLEAR     43  31  62 NW13G20   30.32S
DICKINSON      CLEAR     30  24  78 W8        30.39R
GARRISON         N/A     35  29  78 NW13      30.33S
HETTINGER ARPT CLEAR     38  26  62 NW16      30.40F
JAMESTOWN      CLEAR     37  28  70 N16       30.20S
CARRINGTON     FAIR      36  28  75 NW15      30.25S
HAZEN          CLOUDY    39  32  75 CALM      30.36F
LINTON           N/A     41  28  60 NW12      30.31S
RUGBY          FAIR      32  30  93 NW13      30.25F
STANLEY        FAIR      37  32  81 NW13      30.37R
TIOGA          FAIR      36  30  80 NW10      30.37F
WATFORD CITY   FAIR      41  28  60 NW9       30.39F
$$

CITY           SKY/WX    TMP DP  RH WIND       PRES   REMARKS
GRAND FORKS    CLEAR     34  30  85 N14       30.17S
GRAND FORKS AF CLEAR     35  29  77 N13G22    30.17F
DEVILS LAKE    CLEAR     34  28  79 N10       30.23S
FARGO          CLEAR     36  30  79 N18       30.14R
CANDO          FAIR      28  28 100 NE5       30.25S
CAVALIER       FAIR      36  32  87 NW14      30.20F
GRAFTON        FAIR      36  30  80 NW14      30.20F
GWINNER          N/A     36  28  75 N17G24    30.17S
LANGDON        FAIR      27  27 100 NW8       30.22S WCI  18
ROLLA          FAIR      36  30  80 NW15      30.24S
WALHALLA       FAIR     N/A N/A N/A NW10      30.21F
$$

CITY           SKY/WX    TMP DP  RH WIND       PRES   REMARKS
ABERDEEN       CLEAR     41  31  67 N20G25    30.20R
MOBRIDGE       CLEAR     44  31  60 NW15      30.28R
BUFFALO          N/A     43  24  47 NW25      30.35F
RAPID CITY     CLEAR     45  22  40 NW23      30.44R
GLASGOW        CLEAR     33  23  66 W5        30.46F
SIDNEY         CLEAR     39  26  59 NW12      30.43F
WOLF POINT     CLEAR     35  23  61 W6        30.46F
GLENDIVE       CLEAR     38  23  55 NW13      30.46F
MILES CITY     CLEAR     34  25  69 W10       30.51S
BAKER          CLEAR     34  25  69 W10       30.47S
$$

CITY           SKY/WX    TMP DP  RH WIND       PRES   REMARKS
BILLINGS       CLEAR     41  22  46 W7        30.55S
GREAT FALLS    CLEAR     37  26  64 SW12      30.53S
REGINA         CLEAR     28  25  86 W8        30.37R
ESTEVAN        PTCLDY    30  27  86 W10       30.35F
$$




USA.gov is the U.S. government's official web portal to all federal, state and local government web resources and services.